sat.trackr.live / text

‹ back to catalog

STARLINK-34874

NORAD 65335 · 2025-189N

PAYLOAD ACTIVE UNKNOWN

§ Identity

Operator
Country
US
Launch date
2025-08-27
Launch site
AFETR
Launch vehicle
Mass (kg)
RCS (m²)

Purposes: comms

External: N2YO · Heavens-Above · Gunter

§ Orbital elements

Epoch: 2026-09-20T13:48:10.694592Z

Period
93.85 min
Inclination
53.1585°
Eccentricity
0.0001027
Mean motion
15.34415081 rev/d
Perigee alt
462.0 km
Apogee alt
463.4 km
Semi-major
6,840.8 km
B*
4.6671e-4
RAAN
19.4563°
Arg perigee
71.8822°
Mean anomaly
288.2293°
Rev number
6,097

§ Raw data

STARLINK-348741 65335U 25189N   26263.57512378  .00015432  00000+0  46671-3 0  99952 65335  53.1585  19.4563 0001027  71.8822 288.2293 15.34415081 60975

JSON: /api/v1/satellites/65335 · /tle

For live sub-satellite position, see the globe view (requires WebGL).

§ Visibility from observer

Set your observer location to see the next 7 days of passes ≥ 10°. The values pass through the URL so the page stays shareable.

No JS? Fill the form by hand. The geolocation button needs JavaScript.